Location: Opava
(49.9500°N, 17.9170°E)
Time: 10:10:18
(UTC+02:00)

ISS - Visible Passes

Search period start: 20 October 2021 00:00
Search period end: 30 October 2021 00:00
Orbit: 417 x 423 km, 51.6° (Epoch: 20 October)

Date Brightness Start Highest point End Pass type
(mag) Time Alt. Az. Time Alt. Az. Time Alt. Az.
21 Oct -0.6 06:15:48 10° SSE 06:16:59 11° SE 06:18:10 10° ESE visible
23 Oct -1.6 06:16:17 10° SSW 06:19:07 25° SE 06:21:57 10° E visible
24 Oct -1.2 05:29:55 10° S 05:32:10 18° SE 05:34:30 10° E visible
25 Oct -0.8 04:45:16 12° SE 04:45:17 12° SE 04:46:37 10° ESE visible
25 Oct -3.0 06:18:17 10° SW 06:21:32 52° SSE 06:24:49 10° ENE visible
26 Oct -2.5 05:33:31 29° S 05:34:32 37° SSE 05:37:41 10° E visible
27 Oct -1.4 04:48:39 22° ESE 04:48:39 22° ESE 04:50:30 10° E visible
27 Oct -3.8 06:21:40 17° WSW 06:24:12 89° N 06:27:35 10° ENE visible
28 Oct -3.7 05:36:44 60° SW 05:37:11 72° SSE 05:40:34 10° ENE visible
29 Oct -1.6 04:51:47 27° E 04:51:47 27° E 04:53:33 10° ENE visible
29 Oct -3.6 06:24:47 19° W 06:27:04 66° N 06:30:26 10° ENE visible
